Milwaukee Timmerman, WI

8:04 AM CDT on May 28, 2017 (GMT -0500)
Timmerman

Weather History for KMWC - March, 2014

Change the Weather History Date:

Friday, March 7, 2014

  Actual Average Record
Temperature  
Mean Temperature 30 °F -  
Max Temperature 42 °F 39 °F 73 °F (1987)
Min Temperature 19 °F 24 °F -5 °F (1955)
Degree Days  
Heating Degree Days 34    
Moisture  
Dew Point 20 °F    
Average Humidity 69    
Maximum Humidity 80    
Minimum Humidity 42    
Precipitation  
Precipitation 0.00 in - - ()
Sea Level Pressure  
Sea Level Pressure 29.96 in    
Wind  
Wind Speed 8 mph (SW)    
Max Wind Speed 16 mph    
Max Gust Speed 21 mph    
Visibility 9 miles    
Events      
Averages and records for this station are not official NWS values.
T = Trace of Precipitation, MM = Missing Value Source: NWS Daily Summary

Daily Weather History Graph

Daily Weather History Graph

Search for Another Location

Airport or City:

Trip Planner

Search our weather history database for the weather conditions in past years. The results will help you decide how hot, cold, wet, or windy it might be!

Date:

Astronomy

Mar. 07, 2014 Rise Set
Actual Time 6:18 AM CST 5:48 PM CST
Civil Twilight 5:49 AM CST 6:17 PM CST
Nautical Twilight 5:16 AM CST 6:50 PM CST
Astronomical Twilight 4:43 AM CST 7:23 PM CST
Moon 10:01 AM CST (3/7) 12:02 AM CST (3/7)
Length of Visible Light 12h 27m
Length of Day
11h 30m
Waxing Crescent, 42% of the Moon is Illuminated
Mar 7
Waxing Crescent
Mar 8
First Quarter
Mar 16
Full
Mar 23
Last Quarter
Mar 30
New

Hourly Weather History & Observations

Time (CST) Temp. Windchill Dew Point Humidity Pressure Visibility Wind Dir Wind Speed Gust Speed Precip Events Conditions
12:15 AM 21.2 °F 11.7 °F 14.0 °F 74% 30.05 in 10.0 mi South 8.1 mph - N/A   Clear
12:35 AM 21.2 °F 12.6 °F 14.0 °F 74% 30.04 in 10.0 mi South 6.9 mph - N/A   Clear
12:55 AM 21.2 °F 12.6 °F 14.0 °F 74% 30.04 in 10.0 mi South 6.9 mph - N/A   Clear
1:15 AM 21.2 °F 10.1 °F 14.0 °F 74% 30.03 in 10.0 mi South 10.4 mph - N/A   Clear
1:35 AM 21.2 °F 11.7 °F 14.0 °F 74% 30.02 in 10.0 mi SSW 8.1 mph - N/A   Clear
1:55 AM 21.2 °F 10.9 °F 14.0 °F 74% 30.01 in 10.0 mi SSW 9.2 mph - N/A   Clear
2:15 AM 23.0 °F 11.1 °F 14.0 °F 68% 29.99 in 10.0 mi SSW 12.7 mph 17.3 mph N/A   Clear
2:35 AM 21.2 °F 12.6 °F 14.0 °F 74% 30.00 in 10.0 mi SW 6.9 mph - N/A   Clear
2:55 AM 21.2 °F 10.9 °F 14.0 °F 74% 30.00 in 10.0 mi SSW 9.2 mph - N/A   Clear
3:15 AM 21.2 °F 13.6 °F 14.0 °F 74% 29.99 in 10.0 mi SSW 5.8 mph - N/A   Clear
3:35 AM 21.2 °F 12.6 °F 14.0 °F 74% 29.98 in 10.0 mi SSW 6.9 mph - N/A   Clear
3:55 AM 21.2 °F 13.6 °F 14.0 °F 74% 29.98 in 10.0 mi SSW 5.8 mph - N/A   Clear
4:15 AM 21.2 °F 16.4 °F 14.0 °F 74% 29.98 in 10.0 mi SSW 3.5 mph - N/A   Clear
4:35 AM 19.4 °F 14.3 °F 14.0 °F 80% 29.98 in 10.0 mi South 3.5 mph - N/A   Clear
4:55 AM 21.2 °F - 14.0 °F 74% 29.98 in 10.0 mi Calm Calm - N/A   Clear
5:15 AM 19.4 °F - 12.2 °F 74% 29.97 in 10.0 mi Calm Calm - N/A   Clear
5:35 AM 21.2 °F - 14.0 °F 74% 29.96 in 10.0 mi Calm Calm - N/A   Clear
5:55 AM 19.4 °F - 14.0 °F 80% 29.95 in 10.0 mi Calm Calm - N/A   Clear
6:15 AM 19.4 °F 14.3 °F 14.0 °F 80% 29.95 in 7.0 mi South 3.5 mph - N/A   Clear
6:35 AM 19.4 °F - 14.0 °F 80% 29.95 in 7.0 mi Calm Calm - N/A   Clear
6:45 AM 19.4 °F 11.5 °F 12.2 °F 74% 29.96 in 10.0 mi South 5.8 mph - N/A   Clear
7:45 AM 23.0 °F - 15.8 °F 74% 29.95 in 10.0 mi Calm Calm - N/A   Clear
8:45 AM 30.2 °F 21.9 °F 19.4 °F 64% 29.94 in 7.0 mi SW 9.2 mph - N/A   Clear
9:45 AM 37.4 °F 28.9 °F 19.4 °F 48% 29.92 in 10.0 mi SW 13.8 mph 19.6 mph N/A   Clear
10:45 AM 41.0 °F 33.1 °F 19.4 °F 42% 29.89 in 10.0 mi SW 15.0 mph 18.4 mph N/A   Clear
11:45 AM 42.8 °F 36.6 °F 21.2 °F 42% 29.88 in 10.0 mi South 11.5 mph 17.3 mph N/A   Clear
12:45 PM 42.8 °F 36.6 °F 21.2 °F 42% 29.86 in 10.0 mi SSW 11.5 mph - N/A   Overcast
1:45 PM 42.8 °F 35.8 °F 23.0 °F 46% 29.84 in 10.0 mi SW 13.8 mph 19.6 mph N/A   Scattered Clouds
2:45 PM 42.8 °F 35.8 °F 24.8 °F 49% 29.83 in 10.0 mi SW 13.8 mph 20.7 mph N/A   Mostly Cloudy
3:45 PM 42.8 °F 36.6 °F 24.8 °F 49% 29.83 in 10.0 mi SW 11.5 mph - N/A   Clear
4:45 PM 41.0 °F 32.8 °F 26.6 °F 57% 29.85 in 10.0 mi West 16.1 mph - N/A   Clear
5:45 PM 39.2 °F 34.2 °F 26.6 °F 61% 29.88 in 7.0 mi West 6.9 mph - N/A   Overcast
6:45 PM 39.2 °F 35.9 °F 26.6 °F 61% 29.91 in 10.0 mi West 4.6 mph - N/A   Overcast
7:45 PM 39.2 °F 35.0 °F 26.6 °F 61% 29.93 in 7.0 mi West 5.8 mph - N/A   Overcast
8:15 PM 35.6 °F 30.7 °F 28.4 °F 75% 29.94 in 7.0 mi WNW 5.8 mph - N/A   Overcast
8:35 PM 35.6 °F 30.7 °F 28.4 °F 75% 29.95 in 7.0 mi NW 5.8 mph - N/A   Overcast
8:55 PM 35.6 °F 29.2 °F 28.4 °F 75% 29.95 in 7.0 mi NNW 8.1 mph - N/A   Light Drizzle
9:15 PM 35.6 °F 28.6 °F 28.4 °F 75% 29.96 in 7.0 mi North 9.2 mph - N/A   Overcast
9:35 PM 35.6 °F 27.1 °F 28.4 °F 75% 29.97 in 7.0 mi North 12.7 mph - N/A   Mostly Cloudy
9:55 PM 35.6 °F 28.6 °F 28.4 °F 75% 29.97 in 7.0 mi North 9.2 mph - N/A   Scattered Clouds
10:15 PM 35.6 °F 28.0 °F 26.6 °F 70% 29.98 in 7.0 mi NNE 10.4 mph - N/A   Scattered Clouds
10:35 PM 33.8 °F 25.3 °F 26.6 °F 75% 29.98 in 7.0 mi NNE 11.5 mph 16.1 mph N/A   Scattered Clouds
10:55 PM 33.8 °F 25.3 °F 24.8 °F 70% 29.99 in 7.0 mi NNE 11.5 mph 20.7 mph N/A   Scattered Clouds
11:15 PM 32.0 °F 24.8 °F 24.8 °F 75% 30.00 in 7.0 mi NE 8.1 mph 16.1 mph N/A   Scattered Clouds
11:35 PM 32.0 °F 23.0 °F 26.6 °F 80% 30.01 in 7.0 mi NNE 11.5 mph - N/A   Mostly Cloudy
11:55 PM 32.0 °F 23.6 °F 26.6 °F 80% 30.02 in 7.0 mi NE 10.4 mph 17.3 mph N/A   Scattered Clouds